Location: Treviso
(45.6669°N, 12.2430°E)
Time: 10:22:07
(UTC+01:00)

ISS - Pass Details

Date: 05 December 2021
Orbit: 417 x 422 km, 51.6° (Epoch: 06 December)

Event Time Altitude Azimuth Distance (km) Brightness Sun altitude
Rises 17:11:00 0° 298° (WNW) 2,379 0.7 -7.5°
Reaches altitude 10° 17:13:08 10° 304° (WNW) 1,512 -0.5 -7.9°
Maximum altitude 17:16:28 51° 21° (NNE) 540 -3.5 -8.4°
Drops below altitude 10° 17:19:46 10° 99° (E) 1,506 -1.5 -8.9°
Enters shadow 17:20:02 - 100° (E) 1,611 -1.3 -9.0°
